Weather History for Rawlins, WY

Change the Weather History Date:

Friday, January 4, 2013

  Actual Average Record
Temperature  
Mean Temperature 4 °F 22 °F  
Max Temperature 21 °F 31 °F 47 °F (1956)
Min Temperature -14 °F 12 °F -20 °F (1971)
Degree Days  
Heating Degree Days 61 43  
Month to date heating degree days 233 172  
Since 1 July heating degree days 2853 3626  
Cooling Degree Days 0 0  
Month to date cooling degree days 0 0  
Year to date cooling degree days 0 0  
Moisture  
Dew Point -7 °F    
Average Humidity 64    
Maximum Humidity 79    
Minimum Humidity 49    
Precipitation  
Precipitation 0.00 in 0.02 in 0.33 in (1955)
Month to date precipitation T 0.06  
Year to date precipitation T 0.06  
Sea Level Pressure  
Sea Level Pressure 30.47 in    
Wind  
Wind Speed 2 mph (SW)    
Max Wind Speed 10 mph    
Max Gust Speed 12 mph    
Visibility 10 miles    
Events      
T = Trace of Precipitation, MM = Missing Value Source: NWS Daily Summary

Daily Weather History Graph

Daily Weather History Graph

Search for Another Location

Airport:

Trip Planner

Search our weather history database for the weather conditions in past years. The results will help you decide how hot, cold, wet, or windy it might be!

Date:

Astronomy

Jan. 04, 2013 Rise Set
Actual Time 7:36 AM MST 4:51 PM MST
Civil Twilight 7:05 AM MST 5:23 PM MST
Nautical Twilight 6:30 AM MST 5:57 PM MST
Astronomical Twilight 5:56 AM MST 6:31 PM MST
Moon No Moon Rise 11:13 AM MST (1/4)
Length of Visible Light 10h 18m
Length of Day
9h 15m
Waning Gibbous, 54% of the Moon is Illuminated
Jan 4
Waning Gibbous
Jan 4
Last Quarter
Jan 11
New
Jan 18
First Quarter
Jan 26
Full

Hourly Weather History & Observations

Time (MST) Temp. Windchill Dew Point Humidity Pressure Visibility Wind Dir Wind Speed Gust Speed Precip Events Conditions
12:53 AM -6.0 °F - -11.0 °F 79% 30.56 in 10.0 mi Calm Calm - N/A   Clear
1:53 AM -8.0 °F - -14.1 °F 75% 30.56 in 10.0 mi Calm Calm - N/A   Clear
2:53 AM -9.9 °F - -15.0 °F 78% 30.58 in 10.0 mi Calm Calm - N/A   Clear
3:53 AM -13.0 °F - -18.9 °F 75% 30.60 in 10.0 mi Calm Calm - N/A   Clear
4:53 AM -7.1 °F - -13.0 °F 75% 30.57 in 10.0 mi Calm Calm - N/A   Clear
5:53 AM -13.0 °F - -18.9 °F 75% 30.63 in 10.0 mi Calm Calm - N/A   Clear
6:53 AM -11.0 °F - -18.0 °F 71% 30.64 in 10.0 mi Calm Calm - N/A   Clear
7:53 AM -13.0 °F - -18.9 °F 75% 30.66 in 10.0 mi Calm Calm - N/A   Clear
8:53 AM -0.9 °F - -7.1 °F 75% 30.14 in 10.0 mi Calm Calm - N/A   Clear
9:53 AM 3.9 °F - -2.9 °F 73% 30.14 in 10.0 mi Calm Calm - N/A   Clear
10:53 AM 9.0 °F - -2.0 °F 61% 30.58 in 10.0 mi Calm Calm - N/A   Clear
11:53 AM 12.9 °F - -0.9 °F 54% 30.54 in 10.0 mi Calm Calm - N/A   Clear
12:53 PM 18.0 °F - 1.9 °F 50% 30.45 in 10.0 mi Calm Calm - N/A   Clear
1:53 PM 19.9 °F 9.3 °F 3.9 °F 50% 30.43 in 10.0 mi WSW 9.2 mph - N/A   Clear
2:53 PM 19.9 °F - 3.0 °F 48% 30.43 in 10.0 mi Calm Calm - N/A   Clear
3:53 PM 19.0 °F 12.3 °F 5.0 °F 54% 30.44 in 10.0 mi ESE 4.6 mph - N/A   Clear
4:53 PM 8.1 °F -6.2 °F -0.9 °F 67% 30.46 in 10.0 mi North 10.4 mph - N/A   Clear
5:53 PM 5.0 °F -4.1 °F -4.0 °F 66% 30.51 in 10.0 mi SW 4.6 mph - N/A   Clear
6:53 PM 3.9 °F -5.3 °F -4.0 °F 70% 30.51 in 10.0 mi West 4.6 mph - N/A   Clear
7:53 PM 3.9 °F -5.3 °F -4.0 °F 70% 30.53 in 10.0 mi South 4.6 mph - N/A   Clear
8:53 PM -0.9 °F -12.7 °F -9.0 °F 69% 30.03 in 10.0 mi NE 5.8 mph - N/A   Clear
9:53 PM 3.0 °F -4.4 °F -7.1 °F 63% 30.46 in 10.0 mi WSW 3.5 mph - N/A   Clear
10:53 PM 1.0 °F - -7.1 °F 69% 30.45 in 10.0 mi Calm Calm - N/A   Clear
11:53 PM -5.1 °F - -11.0 °F 76% 30.45 in 10.0 mi Calm Calm - N/A   Clear